• en France
  • Liste des pays
  • À 7 jours
  • Température de l'eau
  • Carte satellitaire
  • Carte météo
  • Widgets météo
  • user-avatar
    Se connecter

    Météo par heure à Yevlakh

    Ce jour, 16 Octobre, Mardi

    Heure Température Précipitation Vent Pression Humidité
    00:00 +17°C° 0 mm 3 m/s 768 mmHg 67%
    01:00 +17°C° 0 mm 2 m/s 768 mmHg 70%
    02:00 +16°C° 0 mm 2 m/s 768 mmHg 72%
    03:00 +16°C° 0 mm 2 m/s 768 mmHg 75%
    04:00 +16°C° 0 mm 2 m/s 768 mmHg 76%
    05:00 +16°C° 0 mm 2 m/s 768 mmHg 77%
    06:00 +16°C° 0 mm 2 m/s 769 mmHg 78%
    07:00 +17°C° 0 mm 2 m/s 769 mmHg 74%
    08:00 +18°C° 0 mm 2 m/s 769 mmHg 71%
    09:00 +19°C° 0 mm 2 m/s 769 mmHg 67%
    10:00 +20°C° 0 mm 2 m/s 768 mmHg 63%
    11:00 +21°C° 0 mm 2 m/s 768 mmHg 59%
    12:00 +22°C° 0 mm 3 m/s 768 mmHg 55%
    13:00 +22°C° 0 mm 3 m/s 768 mmHg 54%
    14:00 +24°C° 0 mm 3 m/s 767 mmHg 52%
    15:00 +24°C° 0 mm 3 m/s 767 mmHg 51%
    16:00 +22°C° 0 mm 3 m/s 767 mmHg 55%
    17:00 +21°C° 0 mm 3 m/s 767 mmHg 59%
    18:00 +20°C° 0 mm 3 m/s 768 mmHg 63%
    19:00 +20°C° 0 mm 3 m/s 768 mmHg 67%
    20:00 +19°C° 0 mm 3 m/s 768 mmHg 71%
    21:00 +19°C° 0 mm 4 m/s 768 mmHg 75%
    22:00 +18°C° 0 mm 3 m/s 768 mmHg 78%
    23:00 +18°C° 0 mm 3 m/s 768 mmHg 80%

    Demain, 17 Octobre, Mercredi

    Heure Température Précipitation Vent Pression Humidité
    00:00 +17°C° 0 mm 3 m/s 768 mmHg 83%
    01:00 +17°C° 0 mm 3 m/s 768 mmHg 84%
    02:00 +17°C° 0 mm 2 m/s 768 mmHg 84%
    03:00 +17°C° 0 mm 2 m/s 768 mmHg 85%
    04:00 +17°C° 0 mm 2 m/s 768 mmHg 84%
    05:00 +17°C° 0 mm 2 m/s 768 mmHg 84%
    06:00 +17°C° 0 mm 2 m/s 768 mmHg 84%
    07:00 +17°C° 0 mm 2 m/s 768 mmHg 81%
    08:00 +18°C° 0 mm 2 m/s 768 mmHg 79%
    09:00 +18°C° 0 mm 2 m/s 768 mmHg 76%
    10:00 +19°C° 0 mm 3 m/s 767 mmHg 73%
    11:00 +20°C° 0 mm 3 m/s 767 mmHg 69%
    12:00 +21°C° 0 mm 3 m/s 767 mmHg 66%
    13:00 +21°C° 0 mm 3 m/s 766 mmHg 64%
    14:00 +22°C° 0 mm 3 m/s 766 mmHg 62%
    15:00 +22°C° 0 mm 3 m/s 766 mmHg 60%
    16:00 +21°C° 0 mm 3 m/s 766 mmHg 65%
    17:00 +20°C° 0 mm 2 m/s 766 mmHg 70%
    18:00 +19°C° 0 mm 2 m/s 766 mmHg 75%
    19:00 +18°C° 0 mm 2 m/s 766 mmHg 77%
    20:00 +18°C° 0 mm 2 m/s 766 mmHg 78%
    21:00 +18°C° 0 mm 2 m/s 766 mmHg 80%
    22:00 +18°C° 0 mm 1 m/s 766 mmHg 81%
    23:00 +18°C° 0 mm 1 m/s 765 mmHg 83%

    Après-demain, 18 Octobre, Jeudi

    Heure Température Précipitation Vent Pression Humidité
    00:00 +18°C° 0 mm 1 m/s 765 mmHg 84%
    01:00 +18°C° 0 mm 1 m/s 765 mmHg 85%
    02:00 +18°C° 0 mm 1 m/s 765 mmHg 86%
    03:00 +16°C° 0 mm 1 m/s 765 mmHg 86%
    04:00 +16°C° 0 mm 1 m/s 765 mmHg 86%
    05:00 +15°C° 0 mm 0 m/s 764 mmHg 87%
    06:00 +15°C° 0 mm 0 m/s 764 mmHg 87%
    07:00 +18°C° 0 mm 1 m/s 764 mmHg 81%
    08:00 +20°C° 0 mm 1 m/s 764 mmHg 75%
    09:00 +21°C° 0 mm 1 m/s 764 mmHg 70%
    10:00 +22°C° 0 mm 1 m/s 764 mmHg 65%
    11:00 +23°C° 0 mm 2 m/s 764 mmHg 60%
    12:00 +24°C° 0 mm 2 m/s 763 mmHg 56%
    13:00 +25°C° 0 mm 2 m/s 763 mmHg 53%
    14:00 +25°C° 0 mm 2 m/s 763 mmHg 50%
    15:00 +26°C° 0 mm 2 m/s 762 mmHg 47%
    16:00 +25°C° 0 mm 2 m/s 763 mmHg 52%
    17:00 +23°C° 0 mm 2 m/s 763 mmHg 57%
    18:00 +21°C° 0 mm 2 m/s 764 mmHg 62%
    19:00 +21°C° 0 mm 2 m/s 764 mmHg 64%
    20:00 +20°C° 0 mm 3 m/s 764 mmHg 66%
    21:00 +20°C° 0 mm 3 m/s 765 mmHg 68%
    22:00 +19°C° 0 mm 3 m/s 765 mmHg 71%
    23:00 +19°C° 0 mm 2 m/s 765 mmHg 74%

    19 Octobre, Vendredi

    Heure Température Précipitation Vent Pression Humidité
    00:00 +18°C° 0 mm 2 m/s 765 mmHg 77%
    01:00 +18°C° 0 mm 2 m/s 765 mmHg 79%
    02:00 +17°C° 0 mm 2 m/s 765 mmHg 81%
    03:00 +18°C° 0 mm 1 m/s 765 mmHg 83%
    04:00 +18°C° 0 mm 1 m/s 765 mmHg 83%
    05:00 +16°C° 0 mm 1 m/s 765 mmHg 84%
    06:00 +16°C° 0 mm 1 m/s 765 mmHg 84%
    07:00 +18°C° 0 mm 1 m/s 765 mmHg 79%
    08:00 +20°C° 0 mm 1 m/s 765 mmHg 75%
    09:00 +21°C° 0 mm 1 m/s 765 mmHg 70%
    10:00 +21°C° 0 mm 2 m/s 765 mmHg 66%
    11:00 +23°C° 0 mm 2 m/s 764 mmHg 62%
    12:00 +24°C° 0 mm 2 m/s 764 mmHg 58%
    13:00 +25°C° 0 mm 2 m/s 764 mmHg 56%
    14:00 +25°C° 0 mm 2 m/s 763 mmHg 54%
    15:00 +25°C° 0 mm 2 m/s 763 mmHg 52%
    16:00 +24°C° 0 mm 2 m/s 763 mmHg 56%
    17:00 +23°C° 0 mm 2 m/s 763 mmHg 60%
    18:00 +21°C° 0 mm 2 m/s 764 mmHg 64%
    19:00 +21°C° 0 mm 2 m/s 764 mmHg 66%
    20:00 +20°C° 0 mm 2 m/s 764 mmHg 69%
    21:00 +20°C° 0 mm 3 m/s 764 mmHg 71%
    22:00 +19°C° 0 mm 2 m/s 764 mmHg 74%
    23:00 +19°C° 0 mm 2 m/s 764 mmHg 76%

    20 Octobre, Samedi

    Heure Température Précipitation Vent Pression Humidité
    00:00 +18°C° 0 mm 2 m/s 764 mmHg 79%
    01:00 +18°C° 0 mm 2 m/s 764 mmHg 80%
    02:00 +18°C° 0 mm 1 m/s 764 mmHg 81%
    03:00 +18°C° 0 mm 1 m/s 763 mmHg 81%
    04:00 +18°C° 0 mm 1 m/s 763 mmHg 81%
    05:00 +18°C° 0 mm 1 m/s 763 mmHg 81%
    06:00 +18°C° 0 mm 1 m/s 763 mmHg 81%
    07:00 +19°C° 0 mm 1 m/s 763 mmHg 78%
    08:00 +20°C° 0 mm 1 m/s 763 mmHg 74%
    09:00 +21°C° 0 mm 1 m/s 763 mmHg 70%
    10:00 +22°C° 0 mm 1 m/s 762 mmHg 65%
    11:00 +23°C° 0 mm 1 m/s 762 mmHg 59%
    12:00 +25°C° 0 mm 1 m/s 761 mmHg 53%
    13:00 +25°C° 0 mm 1 m/s 761 mmHg 51%
    14:00 +26°C° 0 mm 1 m/s 760 mmHg 48%
    15:00 +26°C° 0 mm 1 m/s 760 mmHg 45%
    16:00 +25°C° 0 mm 1 m/s 760 mmHg 49%
    17:00 +24°C° 0 mm 1 m/s 760 mmHg 53%
    18:00 +23°C° 0 mm 1 m/s 760 mmHg 57%
    19:00 +22°C° 0 mm 1 m/s 760 mmHg 59%
    20:00 +22°C° 0 mm 1 m/s 761 mmHg 61%
    21:00 +22°C° 0 mm 1 m/s 761 mmHg 62%
    22:00 +21°C° 0 mm 1 m/s 760 mmHg 64%
    23:00 +21°C° 0 mm 1 m/s 760 mmHg 65%

    21 Octobre, Dimanche

    Heure Température Précipitation Vent Pression Humidité
    00:00 +20°C° 0 mm 1 m/s 760 mmHg 67%
    01:00 +20°C° 0 mm 1 m/s 760 mmHg 68%
    02:00 +20°C° 0 mm 1 m/s 760 mmHg 68%
    03:00 +20°C° 0 mm 1 m/s 760 mmHg 69%
    04:00 +19°C° 0 mm 1 m/s 760 mmHg 68%
    05:00 +19°C° 0 mm 1 m/s 760 mmHg 67%
    06:00 +18°C° 0 mm 2 m/s 760 mmHg 66%
    07:00 +20°C° 0 mm 2 m/s 760 mmHg 59%
    08:00 +23°C° 0 mm 2 m/s 760 mmHg 52%
    09:00 +24°C° 0 mm 2 m/s 759 mmHg 44%
    10:00 +25°C° 0 mm 2 m/s 759 mmHg 40%
    11:00 +27°C° 0 mm 2 m/s 759 mmHg 35%
    12:00 +28°C° 0 mm 3 m/s 758 mmHg 30%
    13:00 +28°C° 0 mm 2 m/s 758 mmHg 30%
    14:00 +28°C° 0 mm 2 m/s 757 mmHg 29%
    15:00 +28°C° 0 mm 2 m/s 757 mmHg 28%
    16:00 +27°C° 0 mm 2 m/s 757 mmHg 30%
    17:00 +26°C° 0 mm 1 m/s 758 mmHg 33%
    18:00 +24°C° 0 mm 1 m/s 758 mmHg 36%
    19:00 +24°C° 0 mm 1 m/s 758 mmHg 37%
    20:00 +23°C° 0 mm 2 m/s 759 mmHg 38%
    21:00 +23°C° 0 mm 2 m/s 759 mmHg 38%
    22:00 +23°C° 0 mm 2 m/s 759 mmHg 40%
    23:00 +21°C° 0 mm 2 m/s 759 mmHg 41%
    Voir plus